Time,TemperatureF,DewpointF,PressureIn,WindDirection,WindDirectionDegrees,WindSpeedMPH,WindSpeedGustMPH,Humidity,HourlyPrecipIn,Conditions,Clouds,dailyrainin,SolarRadiationWatts/m^2,SoftwareType,DateUTC
2013-04-26 00:03:00,64.3,-99.9,19.98,ENE,78,3.0,8.0,255,0.00,,,0.00,0,Wunderground v.1.15,2013-04-26 04:03:00,
2013-04-26 00:13:00,64.2,-99.9,19.99,ENE,63,3.0,8.0,255,0.00,,,0.00,0,Wunderground v.1.15,2013-04-26 04:13:00,
2013-04-26 00:18:00,64.0,-99.9,19.99,ENE,72,3.0,8.0,255,0.00,,,0.00,0,Wunderground v.1.15,2013-04-26 04:18:00,
2013-04-26 00:23:00,63.9,-99.9,19.99,East,93,5.0,8.0,255,0.00,,,0.00,0,Wunderground v.1.15,2013-04-26 04:23:00,
2013-04-26 00:33:00,63.5,-99.9,19.98,ESE,122,3.0,8.0,255,0.00,,,0.00,0,Wunderground v.1.15,2013-04-26 04:33:00,
2013-04-26 00:38:00,63.6,-99.9,19.99,NE,38,10.0,10.0,255,0.00,,,0.00,0,Wunderground v.1.15,2013-04-26 04:38:00,
2013-04-26 00:48:00,63.3,-99.9,19.98,NNE,27,5.0,8.0,255,0.00,,,0.00,0,Wunderground v.1.15,2013-04-26 04:48:00,
2013-04-26 00:59:00,63.1,-99.9,19.98,NNE,32,4.0,10.0,255,0.00,,,0.00,0,Wunderground v.1.15,2013-04-26 04:59:00,
2013-04-26 01:09:00,63.0,-99.9,19.99,East,83,2.0,10.0,255,0.00,,,0.00,0,Wunderground v.1.15,2013-04-26 05:09:00,
2013-04-26 01:14:00,63.0,-99.9,19.99,East,83,2.0,10.0,255,0.00,,,0.00,0,Wunderground v.1.15,2013-04-26 05:14:00,
2013-04-26 01:24:00,62.9,-99.9,19.98,ENE,75,3.0,10.0,255,0.00,,,0.00,0,Wunderground v.1.15,2013-04-26 05:24:00,
2013-04-26 01:33:00,62.6,-99.9,19.98,NE,37,5.0,10.0,255,0.00,,,0.00,0,Wunderground v.1.15,2013-04-26 05:33:00,
2013-04-26 01:39:00,62.5,-99.9,19.99,ENE,67,3.0,10.0,255,0.00,,,0.00,0,Wunderground v.1.15,2013-04-26 05:39:00,
2013-04-26 01:48:00,62.5,-99.9,19.99,NE,40,2.0,10.0,255,0.00,,,0.00,0,Wunderground v.1.15,2013-04-26 05:48:00,
2013-04-26 01:58:00,62.4,-99.9,19.99,ENE,78,2.0,7.0,255,0.00,,,0.00,0,Wunderground v.1.15,2013-04-26 05:58:00,
2013-04-26 02:08:00,62.3,-99.9,19.98,NE,44,5.0,7.0,255,0.00,,,0.00,0,Wunderground v.1.15,2013-04-26 06:08:00,
2013-04-26 02:13:00,62.4,-99.9,19.99,NE,53,5.0,7.0,255,0.00,,,0.00,0,Wunderground v.1.15,2013-04-26 06:13:00,
2013-04-26 02:23:00,62.4,-99.9,19.99,NE,36,3.0,7.0,255,0.00,,,0.00,0,Wunderground v.1.15,2013-04-26 06:23:00,
2013-04-26 02:33:00,62.3,-99.9,19.98,ENE,68,3.0,7.0,255,0.00,,,0.00,0,Wunderground v.1.15,2013-04-26 06:33:00,
2013-04-26 02:43:00,62.3,-99.9,19.98,East,80,4.0,7.0,255,0.00,,,0.00,0,Wunderground v.1.15,2013-04-26 06:43:00,
2013-04-26 02:58:00,62.0,-99.9,19.99,East,87,7.0,9.0,255,0.00,,,0.00,0,Wunderground v.1.15,2013-04-26 06:58:00,
2013-04-26 03:08:00,62.0,-99.9,19.98,East,87,4.0,9.0,255,0.00,,,0.00,0,Wunderground v.1.15,2013-04-26 07:08:00,
2013-04-26 03:18:00,62.2,-99.9,19.99,SE,145,0.0,9.0,255,0.00,,,0.00,0,Wunderground v.1.15,2013-04-26 07:18:00,
2013-04-26 03:28:00,61.9,-99.9,19.99,SE,128,5.0,9.0,255,0.00,,,0.00,0,Wunderground v.1.15,2013-04-26 07:28:00,
2013-04-26 03:38:00,61.8,-99.9,19.99,ENE,69,1.0,9.0,255,0.00,,,0.00,0,Wunderground v.1.15,2013-04-26 07:38:00,
2013-04-26 03:49:00,61.7,-99.9,19.99,East,99,4.0,9.0,255,0.00,,,0.00,0,Wunderground v.1.15,2013-04-26 07:49:00,
2013-04-26 03:59:00,61.7,-99.9,19.99,ENE,72,2.0,11.0,255,0.00,,,0.00,0,Wunderground v.1.15,2013-04-26 07:59:00,
2013-04-26 04:09:00,61.5,-99.9,19.98,ENE,66,3.0,11.0,255,0.00,,,0.00,0,Wunderground v.1.15,2013-04-26 08:09:00,
2013-04-26 04:19:00,61.4,-99.9,19.98,East,83,3.0,11.0,255,0.00,,,0.00,0,Wunderground v.1.15,2013-04-26 08:19:00,
2013-04-26 04:28:00,61.3,-99.9,19.98,SE,126,5.0,11.0,255,0.00,,,0.00,0,Wunderground v.1.15,2013-04-26 08:28:00,
2013-04-26 04:34:00,61.2,-99.9,19.98,ESE,102,2.0,11.0,255,0.00,,,0.00,0,Wunderground v.1.15,2013-04-26 08:34:00,
2013-04-26 04:43:00,60.9,-99.9,19.98,ENE,66,4.0,11.0,255,0.00,,,0.00,0,Wunderground v.1.15,2013-04-26 08:43:00,
2013-04-26 04:58:00,60.6,-99.9,19.99,SE,141,3.0,8.0,255,0.00,,,0.00,0,Wunderground v.1.15,2013-04-26 08:58:00,
2013-04-26 05:08:00,60.5,-99.9,19.99,ESE,106,4.0,8.0,255,0.00,,,0.00,0,Wunderground v.1.15,2013-04-26 09:08:00,
2013-04-26 05:18:00,60.7,-99.9,19.99,ENE,61,3.0,8.0,255,0.00,,,0.00,0,Wunderground v.1.15,2013-04-26 09:18:00,
2013-04-26 05:28:00,60.7,-99.9,19.98,ESE,119,1.0,8.0,255,0.00,,,0.00,0,Wunderground v.1.15,2013-04-26 09:28:00,
2013-04-26 05:38:00,60.3,-99.9,19.99,ENE,72,1.0,8.0,255,0.00,,,0.00,0,Wunderground v.1.15,2013-04-26 09:38:00,
2013-04-26 05:48:00,59.9,-99.9,19.98,ENE,62,4.0,8.0,255,0.00,,,0.00,0,Wunderground v.1.15,2013-04-26 09:48:00,
2013-04-26 05:58:00,59.8,-99.9,19.99,ENE,77,2.0,9.0,255,0.00,,,0.00,0,Wunderground v.1.15,2013-04-26 09:58:00,
2013-04-26 06:03:00,59.6,-99.9,19.99,East,84,3.0,9.0,255,0.00,,,0.00,0,Wunderground v.1.15,2013-04-26 10:03:00,
2013-04-26 06:13:00,59.5,-99.9,19.99,ENE,68,4.0,9.0,255,0.00,,,0.00,0,Wunderground v.1.15,2013-04-26 10:13:00,
2013-04-26 06:23:00,59.4,-99.9,19.99,NE,53,4.0,9.0,255,0.00,,,0.00,0,Wunderground v.1.15,2013-04-26 10:23:00,
2013-04-26 06:33:00,59.3,-99.9,19.99,ENE,65,3.0,9.0,255,0.00,,,0.00,0,Wunderground v.1.15,2013-04-26 10:33:00,
2013-04-26 06:43:00,59.3,-99.9,19.99,ESE,102,4.0,10.0,255,0.00,,,0.00,0,Wunderground v.1.15,2013-04-26 10:43:00,
2013-04-26 06:49:00,59.2,-99.9,19.98,East,88,2.0,9.0,255,0.00,,,0.00,0,Wunderground v.1.15,2013-04-26 10:49:00,
2013-04-26 06:59:00,59.1,-99.9,19.99,NE,44,4.0,13.0,255,0.00,,,0.00,0,Wunderground v.1.15,2013-04-26 10:59:00,
2013-04-26 07:04:00,59.1,-99.9,19.98,East,100,4.0,13.0,255,0.00,,,0.00,0,Wunderground v.1.15,2013-04-26 11:04:00,
2013-04-26 07:14:00,59.0,-99.9,19.99,East,84,3.0,13.0,255,0.00,,,0.00,0,Wunderground v.1.15,2013-04-26 11:14:00,
2013-04-26 07:24:00,59.0,-99.9,19.98,East,86,5.0,13.0,255,0.00,,,0.00,0,Wunderground v.1.15,2013-04-26 11:24:00,
2013-04-26 07:29:00,59.0,-99.9,19.99,ENE,62,5.0,13.0,255,0.00,,,0.00,0,Wunderground v.1.15,2013-04-26 11:29:00,
2013-04-26 07:38:00,59.1,-99.9,19.99,ENE,73,8.0,13.0,255,0.00,,,0.00,0,Wunderground v.1.15,2013-04-26 11:38:00,
2013-04-26 07:49:00,59.3,-99.9,19.98,ENE,59,4.0,13.0,255,0.00,,,0.00,0,Wunderground v.1.15,2013-04-26 11:49:00,
2013-04-26 07:58:00,59.5,-99.9,19.98,NE,50,4.0,12.0,255,0.00,,,0.00,0,Wunderground v.1.15,2013-04-26 11:58:00,
2013-04-26 08:03:00,59.7,-99.9,19.99,NE,36,4.0,12.0,255,0.00,,,0.00,0,Wunderground v.1.15,2013-04-26 12:03:00,
2013-04-26 08:13:00,59.8,-99.9,19.99,NE,38,5.0,12.0,255,0.00,,,0.00,0,Wunderground v.1.15,2013-04-26 12:13:00,
2013-04-26 08:23:00,60.1,-99.9,19.98,ENE,69,0.0,12.0,255,0.00,,,0.00,0,Wunderground v.1.15,2013-04-26 12:23:00,
2013-04-26 08:33:00,60.7,-99.9,19.98,ENE,69,5.0,12.0,255,0.00,,,0.00,0,Wunderground v.1.15,2013-04-26 12:33:00,
2013-04-26 08:43:00,61.1,-99.9,19.99,ENE,59,4.0,12.0,255,0.00,,,0.00,0,Wunderground v.1.15,2013-04-26 12:43:00,
2013-04-26 08:58:00,62.0,-99.9,19.98,NE,45,5.0,10.0,255,0.00,,,0.00,0,Wunderground v.1.15,2013-04-26 12:58:00,
2013-04-26 09:08:00,63.1,-99.9,19.99,NE,54,8.0,10.0,255,0.00,,,0.00,0,Wunderground v.1.15,2013-04-26 13:08:00,
2013-04-26 09:18:00,64.5,-99.9,19.98,NNE,26,4.0,10.0,255,0.00,,,0.00,0,Wunderground v.1.15,2013-04-26 13:18:00,
2013-04-26 09:23:00,65.4,-99.9,19.98,NE,39,5.0,10.0,255,0.00,,,0.00,0,Wunderground v.1.15,2013-04-26 13:23:00,
2013-04-26 09:33:00,65.2,-99.9,19.99,ESE,115,6.0,10.0,255,0.00,,,0.00,0,Wunderground v.1.15,2013-04-26 13:33:00,
2013-04-26 09:43:00,65.7,-99.9,19.98,ENE,66,5.0,11.0,255,0.00,,,0.00,0,Wunderground v.1.15,2013-04-26 13:43:00,
2013-04-26 09:49:00,66.7,-99.9,19.99,East,79,9.0,10.0,255,0.00,,,0.00,0,Wunderground v.1.15,2013-04-26 13:49:00,
2013-04-26 09:59:00,66.5,-99.9,19.99,East,84,11.0,14.0,255,0.00,,,0.00,0,Wunderground v.1.15,2013-04-26 13:59:00,
2013-04-26 10:09:00,66.8,-99.9,19.98,East,86,3.0,14.0,255,0.00,,,0.00,0,Wunderground v.1.15,2013-04-26 14:09:00,
2013-04-26 10:14:00,68.0,-99.9,19.99,ENE,68,6.0,14.0,255,0.00,,,0.00,0,Wunderground v.1.15,2013-04-26 14:14:00,
2013-04-26 10:24:00,67.3,-99.9,19.99,East,90,11.0,14.0,255,0.00,,,0.00,0,Wunderground v.1.15,2013-04-26 14:24:00,
2013-04-26 10:34:00,67.9,-99.9,19.99,ESE,116,10.0,14.0,255,0.00,,,0.00,0,Wunderground v.1.15,2013-04-26 14:34:00,
2013-04-26 10:44:00,67.3,-99.9,19.99,NE,36,6.0,14.0,255,0.00,,,0.00,0,Wunderground v.1.15,2013-04-26 14:44:00,
2013-04-26 10:59:00,69.1,-99.9,19.99,SE,141,18.0,18.0,255,0.00,,,0.00,0,Wunderground v.1.15,2013-04-26 14:59:00,
2013-04-26 11:08:00,68.4,-99.9,19.99,SE,139,22.0,22.0,255,0.00,,,0.00,0,Wunderground v.1.15,2013-04-26 15:08:00,
2013-04-26 11:19:00,68.7,-99.9,19.99,ESE,122,9.0,14.0,255,0.00,,,0.00,0,Wunderground v.1.15,2013-04-26 15:19:00,
2013-04-26 11:28:00,69.3,-99.9,19.99,ESE,117,5.0,14.0,255,0.00,,,0.00,0,Wunderground v.1.15,2013-04-26 15:28:00,
2013-04-26 11:38:00,68.6,-99.9,19.99,East,79,7.0,14.0,255,0.00,,,0.00,0,Wunderground v.1.15,2013-04-26 15:38:00,
2013-04-26 11:43:00,69.4,-99.9,19.98,SE,142,13.0,14.0,255,0.00,,,0.00,0,Wunderground v.1.15,2013-04-26 15:43:00,
2013-04-26 11:58:00,69.5,-99.9,19.98,ESE,117,14.0,25.0,255,0.00,,,0.00,0,Wunderground v.1.15,2013-04-26 15:58:00,
2013-04-26 12:08:00,70.3,-99.9,19.98,ESE,112,13.0,25.0,255,0.00,,,0.00,0,Wunderground v.1.15,2013-04-26 16:08:00,
2013-04-26 12:18:00,70.7,-99.9,19.99,ESE,120,9.0,25.0,255,0.00,,,0.00,0,Wunderground v.1.15,2013-04-26 16:18:00,
2013-04-26 12:28:00,69.5,-99.9,19.98,ESE,123,11.0,25.0,255,0.00,,,0.00,0,Wunderground v.1.15,2013-04-26 16:28:00,
2013-04-26 12:38:00,70.3,-99.9,19.99,SE,136,10.0,25.0,255,0.00,,,0.00,0,Wunderground v.1.15,2013-04-26 16:38:00,
2013-04-26 12:43:00,70.3,-99.9,19.99,SE,141,12.0,25.0,255,0.00,,,0.00,0,Wunderground v.1.15,2013-04-26 16:43:00,
2013-04-26 12:49:00,71.0,-99.9,19.99,ESE,104,7.0,25.0,255,0.00,,,0.00,0,Wunderground v.1.15,2013-04-26 16:49:00,
2013-04-26 12:59:00,70.2,-99.9,19.98,SE,146,14.0,27.0,255,0.00,,,0.00,0,Wunderground v.1.15,2013-04-26 16:59:00,
2013-04-26 13:09:00,70.2,-99.9,19.99,SE,130,14.0,27.0,255,0.00,,,0.00,0,Wunderground v.1.15,2013-04-26 17:09:00,
2013-04-26 13:14:00,70.4,-99.9,19.99,East,98,14.0,27.0,255,0.00,,,0.00,0,Wunderground v.1.15,2013-04-26 17:14:00,
2013-04-26 13:24:00,70.0,-99.9,19.99,SE,138,14.0,27.0,255,0.00,,,0.00,0,Wunderground v.1.15,2013-04-26 17:24:00,
2013-04-26 13:33:00,69.6,-99.9,19.98,East,99,6.0,27.0,255,0.00,,,0.00,0,Wunderground v.1.15,2013-04-26 17:33:00,
2013-04-26 13:39:00,70.7,-99.9,19.99,SE,134,17.0,27.0,255,0.00,,,0.00,0,Wunderground v.1.15,2013-04-26 17:39:00,
2013-04-26 13:48:00,71.2,-99.9,19.99,East,98,10.0,27.0,255,0.00,,,0.00,0,Wunderground v.1.15,2013-04-26 17:48:00,
2013-04-26 13:58:00,70.0,-99.9,19.99,SE,137,16.0,28.0,255,0.00,,,0.00,0,Wunderground v.1.15,2013-04-26 17:58:00,
2013-04-26 14:08:00,69.9,-99.9,19.98,East,101,6.0,28.0,255,0.00,,,0.00,0,Wunderground v.1.15,2013-04-26 18:08:00,
2013-04-26 14:18:00,69.8,-99.9,19.98,SE,129,9.0,28.0,255,0.00,,,0.00,0,Wunderground v.1.15,2013-04-26 18:18:00,
2013-04-26 14:28:00,69.8,-99.9,19.99,ESE,107,8.0,28.0,255,0.00,,,0.00,0,Wunderground v.1.15,2013-04-26 18:28:00,
2013-04-26 14:38:00,69.8,-99.9,19.99,SE,130,12.0,28.0,255,0.00,,,0.00,0,Wunderground v.1.15,2013-04-26 18:38:00,
2013-04-26 14:48:00,71.4,-99.9,19.99,SE,135,4.0,28.0,255,0.00,,,0.00,0,Wunderground v.1.15,2013-04-26 18:48:00,
2013-04-26 14:58:00,70.0,-99.9,19.98,East,80,6.0,23.0,255,0.00,,,0.00,0,Wunderground v.1.15,2013-04-26 18:58:00,
2013-04-26 15:08:00,70.5,-99.9,19.98,East,80,14.0,23.0,255,0.00,,,0.00,0,Wunderground v.1.15,2013-04-26 19:08:00,
2013-04-26 15:13:00,70.9,-99.9,19.99,East,94,10.0,23.0,255,0.00,,,0.00,0,Wunderground v.1.15,2013-04-26 19:13:00,
2013-04-26 15:23:00,70.7,-99.9,19.99,ENE,65,15.0,23.0,255,0.00,,,0.00,0,Wunderground v.1.15,2013-04-26 19:23:00,
2013-04-26 15:33:00,71.1,-99.9,19.98,SE,126,13.0,23.0,255,0.00,,,0.00,0,Wunderground v.1.15,2013-04-26 19:33:00,
2013-04-26 15:38:00,70.3,-99.9,19.99,NE,54,16.0,23.0,255,0.00,,,0.00,0,Wunderground v.1.15,2013-04-26 19:38:00,
2013-04-26 15:44:00,71.1,-99.9,19.98,SE,134,19.0,23.0,255,0.00,,,0.00,0,Wunderground v.1.15,2013-04-26 19:44:00,
2013-04-26 15:59:00,70.6,-99.9,19.98,SE,132,10.0,23.0,255,0.00,,,0.00,0,Wunderground v.1.15,2013-04-26 19:59:00,
2013-04-26 16:09:00,71.1,-99.9,19.99,ESE,118,5.0,23.0,255,0.00,,,0.00,0,Wunderground v.1.15,2013-04-26 20:09:00,
2013-04-26 16:19:00,70.2,-99.9,19.99,SE,141,9.0,23.0,255,0.00,,,0.00,0,Wunderground v.1.15,2013-04-26 20:19:00,
2013-04-26 16:29:00,70.7,-99.9,19.98,SE,137,20.0,23.0,255,0.00,,,0.00,0,Wunderground v.1.15,2013-04-26 20:29:00,
2013-04-26 16:39:00,70.8,-99.9,19.98,SE,134,19.0,23.0,255,0.00,,,0.00,0,Wunderground v.1.15,2013-04-26 20:39:00,
2013-04-26 16:48:00,71.0,-99.9,19.98,ENE,74,7.0,23.0,255,0.00,,,0.00,0,Wunderground v.1.15,2013-04-26 20:48:00,
2013-04-26 16:58:00,70.1,-99.9,19.99,SE,145,14.0,25.0,255,0.00,,,0.00,0,Wunderground v.1.15,2013-04-26 20:58:00,
2013-04-26 17:04:00,70.1,-99.9,19.98,SE,145,14.0,25.0,255,0.00,,,0.00,0,Wunderground v.1.15,2013-04-26 21:04:00,
2013-04-26 17:13:00,69.9,-99.9,19.98,East,91,5.0,25.0,255,0.00,,,0.00,0,Wunderground v.1.15,2013-04-26 21:13:00,
2013-04-26 17:23:00,69.4,-99.9,19.98,ESE,121,12.0,25.0,255,0.00,,,0.00,0,Wunderground v.1.15,2013-04-26 21:23:00,
2013-04-26 17:33:00,69.0,-99.9,19.99,East,96,5.0,25.0,255,0.00,,,0.00,0,Wunderground v.1.15,2013-04-26 21:33:00,
2013-04-26 17:43:00,68.8,-99.9,19.99,SE,128,5.0,25.0,255,0.00,,,0.00,0,Wunderground v.1.15,2013-04-26 21:43:00,
2013-04-26 17:58:00,68.0,-99.9,19.99,ESE,113,12.0,24.0,255,0.00,,,0.00,0,Wunderground v.1.15,2013-04-26 21:58:00,
2013-04-26 18:03:00,67.7,-99.9,19.98,SSE,164,10.0,24.0,255,0.00,,,0.00,0,Wunderground v.1.15,2013-04-26 22:03:00,
2013-04-26 18:13:00,67.6,-99.9,19.99,ESE,114,9.0,24.0,255,0.00,,,0.00,0,Wunderground v.1.15,2013-04-26 22:13:00,
2013-04-26 18:23:00,66.6,-99.9,19.99,SE,135,9.0,24.0,255,0.00,,,0.00,0,Wunderground v.1.15,2013-04-26 22:23:00,
2013-04-26 18:28:00,66.4,-99.9,19.99,SE,138,8.0,24.0,255,0.00,,,0.00,0,Wunderground v.1.15,2013-04-26 22:28:00,
2013-04-26 18:38:00,65.9,-99.9,19.99,East,97,6.0,24.0,255,0.00,,,0.00,0,Wunderground v.1.15,2013-04-26 22:38:00,
2013-04-26 18:44:00,66.2,-99.9,19.99,SE,142,13.0,24.0,255,0.00,,,0.00,0,Wunderground v.1.15,2013-04-26 22:44:00,
2013-04-26 18:59:00,65.7,-99.9,19.99,SE,124,6.0,24.0,255,0.00,,,0.00,0,Wunderground v.1.15,2013-04-26 22:59:00,
2013-04-26 19:04:00,65.5,-99.9,19.99,ESE,113,11.0,24.0,255,0.00,,,0.00,0,Wunderground v.1.15,2013-04-26 23:04:00,
2013-04-26 19:14:00,65.4,-99.9,19.99,East,98,4.0,24.0,255,0.00,,,0.00,0,Wunderground v.1.15,2013-04-26 23:14:00,
2013-04-26 19:23:00,64.7,-99.9,19.98,ESE,112,5.0,24.0,255,0.00,,,0.00,0,Wunderground v.1.15,2013-04-26 23:23:00,
2013-04-26 19:29:00,64.5,-99.9,19.99,East,87,4.0,24.0,255,0.00,,,0.00,0,Wunderground v.1.15,2013-04-26 23:29:00,
2013-04-26 19:38:00,64.3,-99.9,19.99,SE,135,5.0,24.0,255,0.00,,,0.00,0,Wunderground v.1.15,2013-04-26 23:38:00,
2013-04-26 19:49:00,63.9,-99.9,19.99,ESE,111,6.0,24.0,255,0.00,,,0.00,0,Wunderground v.1.15,2013-04-26 23:49:00,
2013-04-26 20:08:00,63.6,-99.9,19.99,SE,146,4.0,18.0,255,0.00,,,0.00,0,Wunderground v.1.15,2013-04-27 00:08:00,
2013-04-26 20:18:00,63.7,-99.9,19.99,SE,145,7.0,18.0,255,0.00,,,0.00,0,Wunderground v.1.15,2013-04-27 00:18:00,
2013-04-26 20:28:00,63.9,-99.9,19.99,ESE,123,4.0,18.0,255,0.00,,,0.00,0,Wunderground v.1.15,2013-04-27 00:28:00,
2013-04-26 20:38:00,63.6,-99.9,19.99,SE,129,0.0,18.0,255,0.00,,,0.00,0,Wunderground v.1.15,2013-04-27 00:38:00,
2013-04-26 20:48:00,63.5,-99.9,19.99,ESE,123,5.0,18.0,255,0.00,,,0.00,0,Wunderground v.1.15,2013-04-27 00:48:00,
2013-04-26 20:58:00,64.0,-99.9,19.98,SE,130,7.0,13.0,255,0.00,,,0.00,0,Wunderground v.1.15,2013-04-27 00:58:00,
2013-04-26 21:08:00,63.9,-99.9,19.99,SE,139,5.0,13.0,255,0.00,,,0.00,0,Wunderground v.1.15,2013-04-27 01:08:00,
2013-04-26 21:18:00,63.6,-99.9,19.99,SE,141,4.0,13.0,255,0.00,,,0.00,0,Wunderground v.1.15,2013-04-27 01:18:00,
2013-04-26 21:23:00,63.6,-99.9,19.99,SE,141,4.0,13.0,255,0.00,,,0.00,0,Wunderground v.1.15,2013-04-27 01:23:00,
2013-04-26 21:33:00,64.0,-99.9,19.98,ESE,123,6.0,13.0,255,0.00,,,0.00,0,Wunderground v.1.15,2013-04-27 01:33:00,
2013-04-26 21:44:00,64.4,-99.9,19.99,SSE,147,7.0,13.0,255,0.00,,,0.00,0,Wunderground v.1.15,2013-04-27 01:44:00,
2013-04-26 21:49:00,64.4,-99.9,19.98,SE,131,5.0,13.0,255,0.00,,,0.00,0,Wunderground v.1.15,2013-04-27 01:49:00,
2013-04-26 21:59:00,64.3,-99.9,19.98,SE,138,6.0,11.0,255,0.00,,,0.00,0,Wunderground v.1.15,2013-04-27 01:59:00,
2013-04-26 22:09:00,64.5,-99.9,19.99,SE,135,6.0,11.0,255,0.00,,,0.00,0,Wunderground v.1.15,2013-04-27 02:09:00,
2013-04-26 22:19:00,64.5,-99.9,19.99,SE,145,5.0,11.0,255,0.00,,,0.00,0,Wunderground v.1.15,2013-04-27 02:19:00,
2013-04-26 22:24:00,64.5,-99.9,19.98,SE,138,6.0,11.0,255,0.00,,,0.00,0,Wunderground v.1.15,2013-04-27 02:24:00,
2013-04-26 22:34:00,64.3,-99.9,19.99,SE,134,6.0,11.0,255,0.00,,,0.00,0,Wunderground v.1.15,2013-04-27 02:34:00,
2013-04-26 22:44:00,64.0,-99.9,19.99,ESE,123,3.0,11.0,255,0.00,,,0.00,0,Wunderground v.1.15,2013-04-27 02:44:00,
2013-04-26 22:58:00,63.9,-99.9,19.99,SSE,148,3.0,11.0,255,0.00,,,0.00,0,Wunderground v.1.15,2013-04-27 02:58:00,
2013-04-26 23:03:00,63.7,-99.9,19.98,SSE,148,4.0,11.0,255,0.00,,,0.00,0,Wunderground v.1.15,2013-04-27 03:03:00,
2013-04-26 23:13:00,63.9,-99.9,19.99,SSE,148,8.0,11.0,255,0.00,,,0.00,0,Wunderground v.1.15,2013-04-27 03:13:00,
2013-04-26 23:23:00,63.9,-99.9,19.98,SE,137,3.0,11.0,255,0.00,,,0.00,0,Wunderground v.1.15,2013-04-27 03:23:00,
2013-04-26 23:33:00,63.8,-99.9,19.99,SE,137,4.0,11.0,255,0.00,,,0.00,0,Wunderground v.1.15,2013-04-27 03:33:00,
2013-04-26 23:43:00,63.9,-99.9,19.98,SE,139,7.0,11.0,255,0.00,,,0.00,0,Wunderground v.1.15,2013-04-27 03:43:00,
2013-04-26 23:58:00,63.4,-99.9,19.99,SE,139,1.0,9.0,255,0.00,,,0.00,0,Wunderground v.1.15,2013-04-27 03:58:00,